User: anonymous   Login
Location: Unspecified
(0.0000°N, 0.0000°E)
Time: 06:00:46
(UTC+01:00)
Language:

GPS 2-12 Rocket1 - Orbit

View from above orbital plane
View from above orbital plane
View from above satellite
View from above satellite

Ground track
Ground track

The orbit data is extracted from the following two-line orbital elements,

1 21891U 92009B   14331.71249554  .00003060  00000-0  32611-3 0  3506
2 21891 019.9970 094.5596 0048965 099.2144 261.3816 14.81346472227713
Epoch (UTC): 27 November 2014 17:05:59
Eccentricity: 0.0048965
inclination: 19.9970°
perigee height: 591 km
apogee height: 659 km
right ascension of ascending node: 94.5596°
argument of perigee: 99.2144°
revolutions per day: 14.81346472
mean anomaly at epoch: 261.3816°
orbit number at epoch: 22771

The dashed part of the orbit path shows where the satellite is in the earth's shadow,  

DLR